Breckenridge, MN

2:48 PM CST on December 02, 2016 (GMT -0600)
Stern

Weather History for KBWP - November, 2013

Change the Weather History Date:

Monday, November 11, 2013

  Actual Average (KFFM) Record (KFFM)
Temperature  
Mean Temperature 14 °F -  
Max Temperature 19 °F 35 °F 66 °F (2005)
Min Temperature 8 °F 21 °F -3 °F (1986)
Degree Days  
Heating Degree Days 52    
Moisture  
Dew Point 6 °F    
Average Humidity 66    
Maximum Humidity 85    
Minimum Humidity 54    
Precipitation  
Precipitation 0.00 in - - ()
Sea Level Pressure  
Sea Level Pressure 30.60 in    
Wind  
Wind Speed 16 mph (North)    
Max Wind Speed 28 mph    
Max Gust Speed 36 mph    
Visibility 10 miles    
Events      
Averages and records for this station are not official NWS values.
T = Trace of Precipitation, MM = Missing Value Source: NWS Daily Summary

Daily Weather History Graph

Daily Weather History Graph

Search for Another Location

Airport or City:

Trip Planner

Search our weather history database for the weather conditions in past years. The results will help you decide how hot, cold, wet, or windy it might be!

Date:

Astronomy

Nov. 11, 2013 Rise Set
Actual Time 7:22 AM CST 4:58 PM CST
Civil Twilight 6:50 AM CST 5:30 PM CST
Nautical Twilight 6:13 AM CST 6:06 PM CST
Astronomical Twilight 5:38 AM CST 6:41 PM CST
Moon 1:57 PM CST (11/11) 12:48 AM CST (11/11)
Length of Visible Light 10h 40m
Length of Day
9h 35m
Waxing Gibbous, 66% of the Moon is Illuminated
Nov 11
Waxing Gibbous
Nov 17
Full
Nov 25
Last Quarter
Dec 2
New
Dec 9
First Quarter

Hourly Weather History & Observations

Time (CST) Temp. Windchill Dew Point Humidity Pressure Visibility Wind Dir Wind Speed Gust Speed Precip Events Conditions
12:15 AM 19.4 °F 3.6 °F 10.4 °F 68% 30.33 in 10.0 mi North 19.6 mph 29.9 mph N/A   Scattered Clouds
12:35 AM 19.4 °F 2.5 °F 8.6 °F 63% 30.34 in 10.0 mi North 23.0 mph 29.9 mph N/A   Scattered Clouds
12:55 AM 19.4 °F 2.1 °F 8.6 °F 63% 30.34 in 10.0 mi North 24.2 mph 31.1 mph N/A   Overcast
1:15 AM 19.4 °F 1.1 °F 8.6 °F 63% 30.35 in 10.0 mi North 27.6 mph 35.7 mph N/A   Mostly Cloudy
1:35 AM 17.6 °F 0.9 °F 8.6 °F 68% 30.36 in 10.0 mi North 20.7 mph 32.2 mph N/A   Mostly Cloudy
1:55 AM 17.6 °F 2.7 °F 8.6 °F 68% 30.37 in 10.0 mi North 16.1 mph 28.8 mph N/A   Mostly Cloudy
2:15 AM 17.6 °F 1.3 °F 8.6 °F 68% 30.38 in 10.0 mi North 19.6 mph 27.6 mph N/A   Mostly Cloudy
2:35 AM 17.6 °F 1.3 °F 8.6 °F 68% 30.39 in 10.0 mi North 19.6 mph 31.1 mph N/A   Overcast
2:55 AM 17.6 °F 0.1 °F 8.6 °F 68% 30.40 in 10.0 mi North 23.0 mph 29.9 mph N/A   Overcast
3:15 AM 17.6 °F 0.9 °F 6.8 °F 63% 30.41 in 10.0 mi North 20.7 mph 27.6 mph N/A   Overcast
3:35 AM 17.6 °F 1.7 °F 5.0 °F 58% 30.41 in 10.0 mi North 18.4 mph 27.6 mph N/A   Scattered Clouds
3:55 AM 15.8 °F -0.2 °F 5.0 °F 62% 30.42 in 10.0 mi North 17.3 mph 23.0 mph N/A   Clear
4:15 AM 15.8 °F -0.6 °F 5.0 °F 62% 30.43 in 10.0 mi North 18.4 mph 24.2 mph N/A   Scattered Clouds
4:35 AM 15.8 °F 1.4 °F 6.8 °F 68% 30.44 in 10.0 mi North 13.8 mph 24.2 mph N/A   Mostly Cloudy
4:55 AM 15.8 °F -1.1 °F 6.8 °F 68% 30.45 in 10.0 mi North 19.6 mph 25.3 mph N/A   Mostly Cloudy
5:15 AM 15.8 °F 0.3 °F 6.8 °F 68% 30.46 in 10.0 mi North 16.1 mph - N/A   Mostly Cloudy
5:35 AM 15.8 °F -0.2 °F 6.8 °F 68% 30.47 in 10.0 mi North 17.3 mph - N/A   Overcast
5:55 AM 15.8 °F -1.1 °F 6.8 °F 68% 30.48 in 10.0 mi North 19.6 mph - N/A   Overcast
6:15 AM 14.0 °F -2.0 °F 5.0 °F 67% 30.49 in 10.0 mi North 16.1 mph 25.3 mph N/A   Overcast
6:35 AM 14.0 °F -3.0 °F 5.0 °F 67% 30.50 in 10.0 mi North 18.4 mph 25.3 mph N/A   Overcast
6:55 AM 14.0 °F -2.5 °F 5.0 °F 67% 30.51 in 10.0 mi North 17.3 mph 21.9 mph N/A   Overcast
7:15 AM 14.0 °F -0.8 °F 5.0 °F 67% 30.52 in 10.0 mi NNE 13.8 mph 24.2 mph N/A   Overcast
7:35 AM 14.0 °F -0.8 °F 6.8 °F 73% 30.53 in 10.0 mi North 13.8 mph 17.3 mph N/A   Overcast
7:55 AM 14.0 °F -0.2 °F 5.0 °F 67% 30.55 in 10.0 mi North 12.7 mph 17.3 mph N/A   Overcast
8:15 AM 14.0 °F -1.4 °F 8.6 °F 79% 30.56 in 3.0 mi NNW 15.0 mph 21.9 mph N/A   Overcast
8:35 AM 14.0 °F -1.4 °F 5.0 °F 67% 30.58 in 10.0 mi North 15.0 mph 21.9 mph N/A   Overcast
8:55 AM 14.0 °F -1.4 °F 5.0 °F 67% 30.58 in 10.0 mi North 15.0 mph - N/A   Scattered Clouds
9:15 AM 15.8 °F 1.4 °F 5.0 °F 62% 30.59 in 10.0 mi North 13.8 mph 23.0 mph N/A   Mostly Cloudy
9:35 AM 15.8 °F -1.1 °F 5.0 °F 62% 30.60 in 10.0 mi North 19.6 mph 24.2 mph N/A   Overcast
9:55 AM 15.8 °F 2.1 °F 5.0 °F 62% 30.60 in 10.0 mi North 12.7 mph 19.6 mph N/A   Overcast
10:15 AM 17.6 °F 2.2 °F 5.0 °F 58% 30.61 in 10.0 mi North 17.3 mph 25.3 mph N/A   Overcast
10:35 AM 17.6 °F 3.7 °F 5.0 °F 58% 30.62 in 10.0 mi North 13.8 mph - N/A   Overcast
10:55 AM 17.6 °F 1.3 °F 5.0 °F 58% 30.63 in 10.0 mi North 19.6 mph 26.5 mph N/A   Overcast
11:15 AM 17.6 °F 2.2 °F 5.0 °F 58% 30.63 in 10.0 mi North 17.3 mph 24.2 mph N/A   Overcast
11:35 AM 17.6 °F 2.2 °F 5.0 °F 58% 30.63 in 10.0 mi North 17.3 mph 26.5 mph N/A   Overcast
11:55 AM 17.6 °F 3.2 °F 5.0 °F 58% 30.63 in 10.0 mi NNW 15.0 mph 20.7 mph N/A   Overcast
12:15 PM 17.6 °F 3.2 °F 5.0 °F 58% 30.63 in 10.0 mi NNW 15.0 mph 19.6 mph N/A   Overcast
12:35 PM 17.6 °F 3.7 °F 5.0 °F 58% 30.63 in 10.0 mi North 13.8 mph 18.4 mph N/A   Overcast
12:55 PM 17.6 °F 3.7 °F 6.8 °F 63% 30.63 in 10.0 mi NNW 13.8 mph 19.6 mph N/A   Overcast
1:15 PM 17.6 °F 2.7 °F 8.6 °F 68% 30.64 in 10.0 mi North 16.1 mph 20.7 mph N/A   Overcast
1:35 PM 19.4 °F 5.5 °F 6.8 °F 58% 30.64 in 10.0 mi NNW 15.0 mph 20.7 mph N/A   Overcast
1:55 PM 19.4 °F 4.5 °F 6.8 °F 58% 30.64 in 10.0 mi North 17.3 mph 21.9 mph N/A   Overcast
2:15 PM 17.6 °F 2.2 °F 6.8 °F 63% 30.65 in 10.0 mi North 17.3 mph 23.0 mph N/A   Overcast
2:35 PM 17.6 °F 2.7 °F 5.0 °F 58% 30.65 in 10.0 mi NNW 16.1 mph - N/A   Overcast
2:55 PM 17.6 °F 4.3 °F 5.0 °F 58% 30.65 in 10.0 mi NNW 12.7 mph 19.6 mph N/A   Overcast
3:15 PM 19.4 °F 7.2 °F 5.0 °F 54% 30.66 in 10.0 mi North 11.5 mph - N/A   Overcast
3:35 PM 17.6 °F 5.0 °F 5.0 °F 58% 30.67 in 10.0 mi North 11.5 mph - N/A   Overcast
3:55 PM 17.6 °F 6.4 °F 5.0 °F 58% 30.67 in 10.0 mi North 9.2 mph 12.7 mph N/A   Overcast
4:15 PM 17.6 °F 3.2 °F 5.0 °F 58% 30.68 in 10.0 mi North 15.0 mph 20.7 mph N/A   Overcast
4:35 PM 17.6 °F 5.0 °F 5.0 °F 58% 30.68 in 10.0 mi NNW 11.5 mph - N/A   Overcast
4:55 PM 15.8 °F 4.2 °F 5.0 °F 62% 30.69 in 10.0 mi NNW 9.2 mph - N/A   Mostly Cloudy
5:15 PM 15.8 °F 4.2 °F 5.0 °F 62% 30.69 in 10.0 mi NNW 9.2 mph - N/A   Mostly Cloudy
5:35 PM 15.8 °F 4.2 °F 5.0 °F 62% 30.70 in 10.0 mi NNW 9.2 mph - N/A   Mostly Cloudy
5:55 PM 14.0 °F 3.9 °F 5.0 °F 67% 30.71 in 10.0 mi NNW 6.9 mph - N/A   Scattered Clouds
6:15 PM 14.0 °F 2.9 °F 5.0 °F 67% 30.72 in 10.0 mi NNW 8.1 mph - N/A   Clear
6:35 PM 14.0 °F 2.9 °F 5.0 °F 67% 30.73 in 10.0 mi NNW 8.1 mph - N/A   Clear
6:55 PM 14.0 °F 3.9 °F 5.0 °F 67% 30.73 in 10.0 mi North 6.9 mph - N/A   Clear
7:15 PM 14.0 °F 5.1 °F 5.0 °F 67% 30.74 in 10.0 mi North 5.8 mph - N/A   Clear
7:35 PM 12.2 °F 4.3 °F 5.0 °F 73% 30.73 in 10.0 mi North 4.6 mph - N/A   Clear
7:55 PM 12.2 °F 6.1 °F 5.0 °F 73% 30.73 in 10.0 mi NNW 3.5 mph - N/A   Clear
8:15 PM 12.2 °F 6.1 °F 5.0 °F 73% 30.74 in 10.0 mi NNW 3.5 mph - N/A   Clear
8:35 PM 12.2 °F 6.1 °F 5.0 °F 73% 30.74 in 10.0 mi NNW 3.5 mph - N/A   Clear
8:55 PM 10.4 °F 4.0 °F 5.0 °F 79% 30.75 in 10.0 mi NNW 3.5 mph - N/A   Clear
9:15 PM 10.4 °F 4.0 °F 5.0 °F 79% 30.74 in 10.0 mi NW 3.5 mph - N/A   Clear
9:35 PM 10.4 °F 4.0 °F 5.0 °F 79% 30.75 in 10.0 mi WNW 3.5 mph - N/A   Clear
9:55 PM 10.4 °F 4.0 °F 5.0 °F 79% 30.78 in 10.0 mi NW 3.5 mph - N/A   Clear
10:15 PM 10.4 °F - 5.0 °F 79% 30.78 in 10.0 mi Calm Calm - N/A   Clear
10:35 PM 10.4 °F 4.0 °F 5.0 °F 79% 30.77 in 10.0 mi WSW 3.5 mph - N/A   Clear
10:55 PM 10.4 °F 4.0 °F 5.0 °F 79% 30.77 in 10.0 mi WSW 3.5 mph - N/A   Clear
11:15 PM 8.6 °F - 5.0 °F 85% 30.78 in 10.0 mi Calm Calm - N/A   Clear
11:35 PM 8.6 °F 0.1 °F 5.0 °F 85% 30.78 in 10.0 mi West 4.6 mph - N/A   Clear
11:55 PM 8.6 °F -1.3 °F 3.2 °F 79% 30.77 in 10.0 mi WSW 5.8 mph - N/A   Clear